Weather History for Zapata, TX

Change the Weather History Date:

Thursday, July 18, 2013

  Actual Average (KLRD) Record (KLRD)
Temperature  
Mean Temperature 84 °F 88 °F  
Max Temperature 94 °F 99 °F 109 °F (1998)
Min Temperature 73 °F 77 °F 70 °F (2007)
Degree Days  
Heating Degree Days 0 0  
Month to date heating degree days 0  
Since 1 June heating degree days 0  
Since 1 July heating degree days 0  
Cooling Degree Days 18 23  
Month to date cooling degree days 414  
Year to date cooling degree days 2217  
Since 1 June cooling degree days 1074  
Growing Degree Days 34 (Base 50)    
Moisture  
Dew Point 65 °F    
Average Humidity 57    
Maximum Humidity 88    
Minimum Humidity 30    
Precipitation  
Precipitation 0.00 in 0.06 in 1.53 in (1931)
Month to date precipitation 1.38  
Year to date precipitation 10.48  
Sea Level Pressure  
Sea Level Pressure 30.04 in    
Wind  
Wind Speed 8 mph (East)    
Max Wind Speed 15 mph    
Max Gust Speed 21 mph    
Visibility 10 miles    
Events      
T = Trace of Precipitation, MM = Missing Value Source: NWS Daily Summary

Daily Weather History Graph

Daily Weather History Graph

Search for Another Location

Airport:

Trip Planner

Search our weather history database for the weather conditions in past years. The results will help you decide how hot, cold, wet, or windy it might be!

Date:

Astronomy

Jul. 18, 2013 Rise Set
Actual Time 6:54 AM CDT 8:32 PM CDT
Civil Twilight 6:28 AM CDT 8:57 PM CDT
Nautical Twilight 5:57 AM CDT 9:28 PM CDT
Astronomical Twilight 5:25 AM CDT 10:00 PM CDT
Moon 4:33 PM CDT (7/18) 2:40 AM CDT (7/18)
Length of Visible Light 14h 29m
Length of Day
13h 37m
Waxing Gibbous, 77% of the Moon is Illuminated
Jul 18
Waxing Gibbous
Jul 22
Full
Jul 29
Last Quarter
Aug 6
New
Aug 14
First Quarter

Hourly Weather History & Observations

Time (CDT) Temp. Heat Index Dew Point Humidity Pressure Visibility Wind Dir Wind Speed Gust Speed Precip Events Conditions
12:15 AM 78.6 °F - 66.4 °F 66% 30.10 in 10.0 mi East 9.2 mph 16.1 mph N/A   Clear
12:35 AM 78.1 °F - 66.6 °F 68% 30.10 in 10.0 mi ESE 9.2 mph - N/A   Clear
12:55 AM 77.9 °F - 66.6 °F 68% 30.10 in 10.0 mi ESE 10.4 mph - N/A   Clear
1:15 AM 77.2 °F - 66.9 °F 71% 30.09 in 10.0 mi East 6.9 mph - N/A   Clear
1:55 AM 76.3 °F - 67.3 °F 74% 30.09 in 10.0 mi East 8.1 mph - N/A   Clear
2:15 AM 75.9 °F - 67.5 °F 75% 30.08 in 10.0 mi East 6.9 mph - N/A   Clear
2:35 AM 75.6 °F - 67.5 °F 76% 30.08 in 10.0 mi East 5.8 mph - N/A   Clear
2:55 AM 75.4 °F - 67.3 °F 76% 30.08 in 10.0 mi East 6.9 mph - N/A   Clear
3:15 AM 75.2 °F - 67.5 °F 77% 30.08 in 10.0 mi East 5.8 mph - N/A   Clear
3:35 AM 74.7 °F - 67.6 °F 79% 30.07 in 10.0 mi East 5.8 mph - N/A   Clear
3:55 AM 74.5 °F - 68.0 °F 80% 30.08 in 10.0 mi East 3.5 mph - N/A   Clear
4:15 AM 74.3 °F - 68.2 °F 81% 30.08 in 10.0 mi East 6.9 mph - N/A   Clear
4:35 AM 73.9 °F - 68.4 °F 83% 30.07 in 10.0 mi East 5.8 mph - N/A   Clear
4:55 AM 73.8 °F - 68.7 °F 84% 30.07 in 10.0 mi East 6.9 mph - N/A   Clear
5:15 AM 73.8 °F - 69.4 °F 86% 30.07 in 10.0 mi East 5.8 mph - N/A   Clear
5:55 AM 73.8 °F - 70.2 °F 88% 30.06 in 10.0 mi East 3.5 mph - N/A   Scattered Clouds
6:15 AM 73.8 °F - 70.2 °F 88% 30.07 in 10.0 mi East 3.5 mph - N/A   Clear
8:15 AM 76.5 °F - 70.2 °F 81% 30.08 in 10.0 mi ENE 9.2 mph - N/A   Mostly Cloudy
8:35 AM 77.0 °F - 70.3 °F 80% 30.08 in 10.0 mi East 10.4 mph - N/A   Mostly Cloudy
8:55 AM 78.6 °F - 70.5 °F 76% 30.09 in 10.0 mi East 5.8 mph - N/A   Mostly Cloudy
9:15 AM 80.6 °F 83.9 °F 70.2 °F 70% 30.10 in 10.0 mi East 9.2 mph - N/A   Mostly Cloudy
9:55 AM 82.0 °F 85.5 °F 69.1 °F 65% 30.10 in 10.0 mi East 8.1 mph - N/A   Mostly Cloudy
10:15 AM 83.1 °F 86.3 °F 68.5 °F 61% 30.10 in 10.0 mi East 9.2 mph - N/A   Mostly Cloudy
10:35 AM 85.3 °F 88.2 °F 67.6 °F 55% 30.10 in 10.0 mi East 10.4 mph 17.3 mph N/A   Overcast
10:55 AM 86.9 °F 89.6 °F 66.9 °F 51% 30.10 in 10.0 mi East 10.4 mph 16.1 mph N/A   Mostly Cloudy
11:15 AM 86.4 °F 88.7 °F 66.0 °F 51% 30.10 in 10.0 mi East 9.2 mph - N/A   Mostly Cloudy
11:55 AM 89.6 °F 90.8 °F 63.9 °F 42% 30.08 in 10.0 mi Calm Calm - N/A   Scattered Clouds
12:35 PM 91.2 °F 91.1 °F 60.8 °F 36% 30.07 in 10.0 mi Calm Calm - N/A   Scattered Clouds
12:55 PM 92.3 °F 91.6 °F 59.5 °F 33% 30.06 in 10.0 mi ESE 9.2 mph - N/A   Scattered Clouds
1:15 PM 94.1 °F 93.1 °F 58.5 °F 30% 30.06 in 10.0 mi East 11.5 mph 17.3 mph N/A   Scattered Clouds
1:35 PM 93.4 °F 92.8 °F 59.2 °F 32% 30.04 in 10.0 mi ESE 10.4 mph - N/A   Scattered Clouds
1:55 PM 92.3 °F 93.8 °F 63.9 °F 39% 30.03 in 10.0 mi ENE 11.5 mph - N/A   Scattered Clouds
2:15 PM 91.6 °F 92.7 °F 63.3 °F 39% 30.02 in 10.0 mi ENE 9.2 mph 17.3 mph N/A   Scattered Clouds
2:35 PM 91.2 °F 92.2 °F 62.8 °F 39% 30.02 in 10.0 mi ENE 8.1 mph - N/A   Clear
2:55 PM 92.7 °F 93.2 °F 61.7 °F 36% 30.01 in 10.0 mi ENE 10.4 mph 18.4 mph N/A   Scattered Clouds
3:15 PM 92.7 °F 92.9 °F 61.2 °F 35% 30.00 in 10.0 mi NE 9.2 mph 16.1 mph N/A   Scattered Clouds
3:35 PM 92.5 °F 92.2 °F 60.6 °F 34% 29.99 in 10.0 mi ENE 10.4 mph - N/A   Clear
3:55 PM 94.1 °F 93.5 °F 59.2 °F 31% 29.98 in 10.0 mi East 15.0 mph 19.6 mph N/A   Clear
5:15 PM 92.3 °F 92.7 °F 61.5 °F 36% 29.97 in 10.0 mi East 11.5 mph 20.7 mph N/A   Mostly Cloudy
5:35 PM 92.3 °F 92.3 °F 61.0 °F 35% 29.96 in 10.0 mi East 12.7 mph 20.7 mph N/A   Mostly Cloudy
5:55 PM 91.4 °F 91.4 °F 61.0 °F 36% 29.96 in 10.0 mi ESE 13.8 mph 17.3 mph N/A   Mostly Cloudy
6:15 PM 90.9 °F 90.9 °F 61.5 °F 37% 29.96 in 10.0 mi ESE 10.4 mph - N/A   Overcast
7:15 PM 90.0 °F 90.3 °F 61.7 °F 39% 29.95 in 10.0 mi East 12.7 mph 19.6 mph N/A   Overcast
7:35 PM 88.3 °F 88.9 °F 62.6 °F 42% 29.95 in 10.0 mi East 12.7 mph 20.7 mph N/A   Scattered Clouds
7:55 PM 88.0 °F 88.1 °F 61.9 °F 41% 29.96 in 10.0 mi East 9.2 mph 19.6 mph N/A   Scattered Clouds
8:15 PM 86.9 °F 87.5 °F 62.8 °F 44% 29.96 in 10.0 mi East 13.8 mph 17.3 mph N/A   Scattered Clouds
8:35 PM 86.2 °F 87.3 °F 63.9 °F 47% 29.96 in 10.0 mi East 11.5 mph - N/A   Scattered Clouds
8:55 PM 85.5 °F 86.6 °F 63.5 °F 48% 29.95 in 10.0 mi East 10.4 mph - N/A   Clear
9:15 PM 84.7 °F 86.1 °F 64.4 °F 50% 29.97 in 10.0 mi East 6.9 mph - N/A   Clear
9:35 PM 84.2 °F 85.8 °F 64.6 °F 52% 29.97 in 10.0 mi North - - N/A   Clear
9:55 PM 83.5 °F 85.3 °F 65.5 °F 54% 29.98 in 10.0 mi East 9.2 mph - N/A   Clear
10:15 PM 82.9 °F 85.0 °F 66.0 °F 56% 29.99 in 10.0 mi East 12.7 mph 17.3 mph N/A   Clear
10:35 PM 82.4 °F 84.6 °F 66.2 °F 58% 29.99 in 10.0 mi East 10.4 mph 18.4 mph N/A   Clear
10:55 PM 82.0 °F 84.3 °F 66.2 °F 59% 30.00 in 10.0 mi East 10.4 mph - N/A   Scattered Clouds
11:15 PM 81.7 °F 84.0 °F 66.6 °F 60% 30.01 in 10.0 mi East 9.2 mph - N/A   Clear
11:35 PM 81.1 °F 83.5 °F 67.1 °F 62% 30.02 in 10.0 mi East 9.2 mph 18.4 mph N/A   Clear
11:55 PM 80.8 °F 83.2 °F 67.3 °F 63% 30.03 in 10.0 mi East 5.8 mph - N/A   Clear